Wind_Speed
16 17 16 15 14 13 12 12 12 13 14 15 14 14 15 15 15 15 14 14 14 14 15 16 16 17 18 19 20 20 21 22 24 25 26 27 28 29 29 30 31 32 32 33
17 16 16 16 16 15 14 13 13 14 15 14 15 16 16 18 19 19 18 18 18 19 19 19 20 20 20 21 22 22 23 24 25 26 27 28 29 30 31 32 33 34 34 34
17 18 18 16 16 16 16 16 16 16 16 16 16 16 18 19 20 21 22 23 23 23 23 24 23 23 23 24 24 25 25 26 27 27 29 30 31 32 34 35 36 36 37 38
18 20 20 18 18 18 19 19 18 18 17 17 17 17 19 20 21 22 24 25 26 27 27 27 27 27 27 28 28 28 28 29 30 30 31 32 34 35 36 38 39 39 40 41
20 19 18 20 18 18 19 19 19 19 19 18 18 19 19 20 21 23 25 27 29 29 30 31 32 32 32 32 32 32 32 32 33 34 35 37 38 39 41 41 42 43 43 45
22 21 19 21 19 19 19 19 19 20 19 19 19 20 20 21 23 23 25 27 30 32 33 33 34 35 36 36 35 35 35 35 36 37 38 40 41 43 44 45 46 47 48 48
23 22 22 22 20 19 19 19 19 20 20 20 20 21 22 22 23 24 26 27 29 31 32 33 34 35 35 36 36 36 37 38 39 40 42 43 44 45 46 48 49 50 51 52
24 23 24 22 20 19 19 19 20 21 21 21 22 22 22 23 24 25 26 27 27 28 30 31 32 32 33 34 35 36 37 39 41 42 44 45 46 48 49 50 51 53 54 55
24 24 24 22 21 20 20 20 21 22 22 22 23 24 24 24 25 26 27 27 27 27 29 29 30 31 32 33 35 37 38 40 42 44 45 46 48 49 51 52 54 55 57 58
24 24 23 22 22 22 22 22 22 23 23 24 24 25 26 26 27 28 27 28 29 29 29 30 30 32 33 35 36 38 39 41 43 44 46 48 49 51 53 55 57 59 60 62
21 22 22 22 22 23 23 23 24 24 25 25 26 26 27 28 28 28 29 29 29 29 30 31 32 34 35 36 38 39 41 43 44 46 48 50 52 55 57 59 61 62 64 65
21 21 22 22 23 23 24 24 25 25 26 26 26 27 28 29 29 29 29 29 30 30 32 33 34 35 36 38 40 41 43 45 47 49 52 54 56 58 60 62 64 65 67 68
21 22 23 23 24 24 25 25 25 26 26 26 26 27 29 29 28 28 28 29 31 32 33 34 36 37 39 41 43 45 47 49 51 53 56 58 60 62 64 65 66 68 69 70
21 22 23 23 24 24 25 25 26 26 27 28 28 29 30 30 30 30 30 31 33 34 35 37 38 40 42 44 47 49 51 53 55 58 60 62 64 66 67 67 68 68 68 68
20 21 22 23 23 24 25 25 27 27 28 29 30 31 31 32 32 32 33 34 35 36 38 40 42 44 46 48 51 53 55 58 60 61 63 65 66 66 66 66 66 65 64 64
20 21 21 22 23 24 25 26 27 28 29 30 31 32 32 33 33 34 34 36 37 39 41 44 46 48 50 52 54 57 59 60 61 63 63 64 63 63 62 62 62 61 59 58
20 21 22 23 24 25 26 27 28 29 30 31 31 32 33 34 34 35 37 39 41 43 44 46 48 51 53 55 57 58 60 61 61 60 59 59 58 58 58 57 56 54 53 52
21 22 23 24 25 26 27 28 28 29 29 30 32 33 34 35 36 38 40 42 44 46 47 49 52 54 55 57 57 58 58 57 56 55 55 54 54 53 52 51 49 48 46 45
23 23 24 25 26 26 27 27 28 28 29 31 32 34 36 38 39 41 42 44 46 48 50 52 53 54 55 55 55 54 53 52 51 50 50 49 48 47 46 44 42 41 39 36
25 25 25 25 26 26 27 28 30 31 32 33 34 36 38 40 41 42 44 46 48 50 51 52 52 52 52 51 50 48 47 46 45 45 45 44 43 41 40 38 36 33 31 29
25 25 25 26 27 29 30 31 32 34 35 36 37 39 40 42 43 45 47 49 49 49 50 50 49 48 47 45 43 42 41 40 41 41 40 39 38 36 35 32 29 26 24 22
25 26 26 28 29 31 32 33 34 36 37 38 40 41 43 44 46 47 47 48 48 47 47 46 44 43 41 40 38 37 38 38 38 37 35 33 31 30 27 24 21 19 17 16
28 29 30 31 32 33 34 35 36 37 39 40 42 43 45 46 46 46 46 45 44 43 42 40 39 37 36 35 35 35 35 35 33 31 29 28 26 24 21 18 16 14 14 13
29 30 31 33 33 35 36 38 39 40 41 42 43 44 44 44 44 43 42 41 40 38 37 35 34 33 32 32 32 32 32 30 28 26 25 23 21 18 16 14 13 12 12 12
31 32 33 34 35 37 38 39 40 41 41 42 42 42 42 41 40 39 38 37 35 33 32 31 30 30 29 29 29 29 28 26 24 22 20 18 16 14 14 12 11 11 11 11
32 33 34 36 37 38 38 39 40 40 40 40 39 39 38 37 36 35 34 31 30 29 28 28 27 27 27 27 27 26 24 22 20 18 16 14 13 12 11 10 10 10 10 10
34 35 36 37 37 38 38 38 37 37 37 36 35 34 33 32 31 29 27 26 25 25 25 25 25 25 24 24 23 22 20 18 16 14 13 12 11 10 9 9 9 9 10 10
Wind_Direction
252 257 260 259 262 266 270 269 267 267 268 268 265 265 264 266 268 270 271 271 270 269 269 270 270 270 270 269 267 267 266 266 267 269 270 272 273 275 277 279 280 281 282 283
253 257 258 258 259 262 267 270 270 269 270 268 264 262 263 264 263 264 265 266 267 266 266 266 267 269 270 271 270 269 268 267 269 271 272 273 274 276 278 280 280 280 281 282
253 258 258 260 260 261 265 267 267 268 270 271 266 264 262 261 260 261 263 263 264 264 264 264 266 266 266 267 268 268 269 270 271 273 275 276 277 279 280 280 281 281 282 282
247 255 257 257 258 260 263 264 266 267 270 270 268 267 264 263 262 261 262 263 263 263 262 262 263 264 265 264 265 267 269 270 273 275 276 278 279 279 280 281 281 281 282 284
246 254 261 261 260 261 264 265 265 266 268 268 271 270 267 265 265 264 263 262 262 261 260 260 261 262 261 263 264 265 268 270 273 275 277 279 280 281 282 282 282 282 282 283
246 247 252 258 262 262 266 267 266 267 268 269 274 273 270 267 266 266 265 263 260 259 260 260 260 258 260 261 262 263 266 270 273 276 278 279 280 281 282 282 282 283 283 283
248 252 254 257 260 261 264 266 267 268 269 270 273 274 273 270 268 268 268 266 264 260 257 259 262 261 261 265 266 269 271 274 277 279 280 281 282 282 283 283 284 284 284 284
248 251 254 257 259 260 263 267 269 269 271 272 273 273 273 273 272 272 270 269 267 263 261 262 264 264 267 269 270 272 274 277 279 280 281 282 283 283 284 284 285 284 285 285
245 248 253 257 258 261 265 269 270 270 273 274 273 272 273 273 272 272 271 270 271 270 270 270 271 273 275 275 276 276 278 280 281 282 282 283 284 285 285 285 285 285 285 285
242 246 252 255 258 261 265 268 270 271 273 276 276 272 271 271 271 272 272 272 272 273 274 275 276 277 279 279 280 281 282 283 283 284 285 286 286 286 286 286 286 286 285 285
244 249 253 256 260 264 266 268 270 272 274 275 274 274 274 273 273 274 276 276 278 278 279 279 279 280 282 283 284 285 285 286 287 287 288 288 288 288 288 288 287 287 287 286
252 254 257 260 263 266 268 270 272 274 276 275 276 277 276 274 273 273 275 277 280 282 282 283 284 285 286 287 288 288 289 289 290 290 290 290 290 290 290 289 289 289 289 288
257 259 261 264 266 268 269 271 273 275 277 277 277 278 276 276 276 275 277 281 282 284 284 285 286 288 289 290 290 291 292 292 292 293 293 293 292 292 291 291 290 290 289 289
258 260 262 264 267 269 270 272 273 276 278 278 278 279 279 277 279 280 282 283 284 285 286 287 289 290 291 292 293 293 294 294 294 294 294 294 294 293 293 292 292 291 291 291
259 261 263 266 267 268 269 271 274 276 278 279 280 279 279 281 283 283 284 284 286 287 288 290 291 293 294 295 295 296 297 297 297 296 296 296 295 295 295 294 294 294 294 293
262 265 267 268 269 270 272 274 277 278 279 278 279 278 278 280 281 282 284 286 288 290 292 293 295 296 296 297 298 298 298 298 298 297 297 297 297 297 297 297 297 297 297 296
264 266 269 270 271 273 275 276 278 278 278 278 278 278 279 280 282 285 288 290 291 292 294 296 297 298 299 299 300 300 299 299 299 299 299 299 299 300 300 300 300 299 299 298
266 269 271 273 275 277 278 277 276 276 277 278 278 280 281 282 285 289 291 293 294 295 297 298 299 300 301 301 301 301 300 300 300 301 301 302 302 303 303 302 302 302 302 301
270 271 273 276 277 277 277 276 275 276 278 280 282 285 287 288 290 292 293 295 297 298 299 300 301 302 302 302 301 301 301 301 302 303 304 305 306 306 306 306 306 306 306 305
275 276 275 276 278 278 277 276 277 279 280 282 284 288 289 290 292 293 295 297 298 300 301 302 303 303 303 303 302 302 303 304 305 306 308 309 310 310 310 310 310 309 309 309
275 274 274 277 278 278 278 279 281 282 284 285 288 290 293 294 296 297 299 300 301 302 303 303 304 304 304 304 304 305 306 308 309 310 311 312 313 314 314 314 314 314 314 313
275 274 274 275 278 280 281 282 284 285 286 288 291 293 296 298 299 300 301 301 302 303 303 304 304 304 304 305 306 307 309 311 312 313 314 316 317 319 320 321 323 324 326 328
274 276 278 279 281 283 284 285 286 288 290 293 295 297 298 299 300 301 301 302 302 303 304 304 304 305 305 306 308 310 312 313 314 315 317 319 321 324 326 329 332 335 337 340
277 278 279 281 283 284 285 287 289 292 294 296 297 298 299 300 300 301 301 301 302 303 304 304 305 306 308 309 311 313 314 315 316 318 320 322 326 329 333 336 339 342 347 352
279 280 281 283 284 286 289 291 293 295 296 297 298 299 299 300 300 300 301 301 302 303 304 305 307 308 310 312 314 315 316 316 318 320 322 324 327 332 336 339 342 347 351 355
280 281 283 286 288 290 292 294 295 297 297 298 298 298 299 299 299 300 301 301 302 304 305 307 309 310 312 314 316 318 318 318 321 323 325 328 331 334 338 343 348 352 356 359
282 284 286 289 291 292 293 294 295 296 297 297 298 298 298 299 299 300 301 302 304 306 308 310 311 312 314 317 319 321 322 322 324 326 329 332 334 335 339 344 348 350 351 352
Height
5849 5849 5849 5849 5849 5849 5849 5849 5849 5849 5847 5845 5845 5844 5844 5843 5843 5843 5843 5843 5844 5844 5844 5844 5844 5844 5844 5845 5845 5844 5844 5844 5844 5844 5844 5843 5842 5842 5841 5840 5838 5837 5836 5834
5843 5843 5844 5844 5845 5844 5844 5844 5844 5843 5842 5841 5840 5839 5839 5839 5839 5839 5839 5839 5839 5839 5839 5839 5839 5839 5839 5839 5839 5839 5838 5838 5838 5837 5837 5836 5835 5834 5833 5831 5830 5828 5827 5825
5839 5839 5839 5840 5840 5840 5839 5839 5838 5838 5838 5836 5835 5834 5834 5834 5833 5833 5833 5833 5833 5833 5833 5833 5833 5833 5833 5833 5833 5832 5832 5831 5831 5830 5829 5828 5827 5826 5824 5822 5821 5819 5817 5815
5833 5834 5834 5837 5834 5834 5833 5833 5833 5832 5832 5831 5830 5829 5828 5828 5827 5827 5827 5827 5827 5826 5826 5826 5826 5826 5826 5825 5825 5825 5824 5824 5823 5822 5821 5819 5818 5817 5815 5813 5811 5809 5806 5804
5827 5828 5829 5829 5828 5828 5827 5827 5826 5826 5825 5825 5824 5823 5822 5821 5821 5821 5820 5820 5820 5819 5819 5819 5819 5818 5818 5817 5817 5816 5816 5815 5814 5813 5812 5810 5809 5807 5804 5802 5800 5797 5794 5792
5820 5822 5823 5823 5822 5821 5822 5821 5820 5819 5819 5819 5818 5817 5817 5815 5814 5814 5813 5812 5812 5811 5811 5810 5810 5810 5809 5808 5807 5807 5806 5806 5805 5804 5802 5800 5798 5796 5793 5790 5787 5785 5782 5779
5813 5814 5816 5815 5815 5816 5817 5816 5814 5813 5813 5812 5812 5811 5810 5808 5807 5807 5805 5804 5803 5803 5802 5802 5801 5801 5800 5799 5798 5797 5797 5796 5795 5793 5791 5789 5786 5784 5781 5778 5774 5771 5768 5764
5806 5808 5810 5807 5808 5809 5809 5808 5808 5807 5807 5806 5805 5803 5802 5801 5800 5799 5798 5797 5796 5795 5794 5794 5793 5792 5791 5790 5789 5788 5787 5786 5784 5782 5780 5777 5774 5771 5768 5764 5761 5757 5753 5749
5799 5801 5800 5800 5801 5801 5802 5801 5801 5801 5800 5799 5797 5796 5795 5794 5793 5792 5791 5790 5789 5788 5787 5786 5785 5784 5783 5782 5781 5779 5777 5775 5773 5771 5768 5764 5761 5758 5754 5750 5746 5742 5737 5733
5790 5791 5792 5793 5794 5794 5795 5795 5794 5793 5793 5792 5790 5789 5788 5787 5786 5784 5783 5782 5781 5780 5779 5778 5777 5776 5774 5773 5771 5769 5767 5764 5761 5758 5755 5751 5747 5743 5739 5734 5729 5725 5720 5715
5783 5784 5785 5786 5787 5787 5787 5787 5787 5786 5785 5784 5783 5782 5781 5779 5778 5777 5776 5775 5773 5772 5771 5770 5769 5767 5765 5763 5761 5758 5755 5752 5749 5745 5741 5737 5732 5727 5722 5717 5711 5706 5700 5694
5777 5778 5779 5780 5780 5780 5780 5780 5779 5778 5777 5776 5775 5774 5772 5771 5770 5769 5768 5767 5766 5764 5763 5761 5759 5757 5755 5752 5749 5746 5743 5739 5735 5730 5726 5721 5716 5710 5704 5698 5692 5685 5679 5673
5770 5771 5772 5772 5773 5772 5772 5772 5771 5770 5770 5768 5767 5766 5765 5764 5762 5761 5760 5759 5758 5756 5754 5752 5750 5747 5744 5741 5737 5733 5729 5725 5720 5715 5709 5704 5698 5692 5685 5679 5672 5665 5658 5651
5763 5764 5765 5765 5765 5765 5765 5764 5763 5763 5762 5761 5760 5759 5757 5756 5754 5753 5751 5750 5748 5746 5744 5742 5739 5736 5732 5728 5724 5719 5714 5709 5704 5698 5692 5685 5679 5671 5664 5657 5651 5643 5636 5628
5757 5757 5758 5758 5758 5758 5757 5757 5756 5755 5754 5752 5751 5750 5749 5747 5745 5744 5742 5741 5739 5736 5734 5731 5727 5723 5719 5714 5709 5704 5699 5693 5686 5680 5673 5666 5658 5651 5643 5636 5628 5621 5614 5607
5750 5750 5750 5751 5750 5750 5749 5749 5748 5747 5745 5744 5743 5741 5740 5738 5736 5734 5733 5731 5728 5726 5722 5719 5714 5710 5705 5700 5694 5688 5682 5676 5669 5661 5654 5646 5638 5631 5623 5616 5609 5601 5595 5588
5743 5744 5743 5743 5743 5742 5741 5740 5739 5738 5737 5735 5734 5732 5731 5729 5727 5725 5723 5720 5717 5714 5710 5706 5701 5696 5690 5685 5678 5672 5665 5657 5650 5643 5635 5628 5620 5613 5606 5598 5591 5584 5578 5571
5737 5737 5736 5736 5735 5734 5733 5732 5731 5730 5728 5727 5725 5724 5722 5720 5717 5715 5712 5709 5705 5701 5697 5692 5687 5681 5675 5669 5662 5655 5647 5640 5633 5626 5619 5612 5605 5597 5590 5582 5576 5569 5562 5556
5729 5729 5729 5728 5727 5726 5725 5724 5723 5721 5720 5718 5717 5714 5712 5709 5707 5704 5700 5697 5692 5688 5683 5678 5672 5666 5659 5652 5645 5638 5632 5625 5618 5611 5605 5597 5590 5583 5576 5569 5562 5556 5550 5544
5722 5721 5721 5720 5719 5718 5717 5715 5714 5713 5711 5709 5707 5705 5702 5699 5696 5692 5688 5684 5680 5674 5669 5663 5657 5650 5644 5637 5630 5624 5617 5611 5605 5598 5592 5585 5578 5571 5564 5558 5551 5545 5540 5535
5714 5713 5712 5712 5711 5709 5708 5707 5705 5703 5701 5699 5697 5694 5691 5688 5684 5680 5675 5670 5666 5660 5654 5648 5642 5636 5629 5623 5617 5611 5606 5600 5594 5587 5581 5574 5568 5561 5555 5549 5543 5538 5533 5529
5705 5705 5704 5703 5702 5700 5699 5697 5695 5693 5691 5688 5685 5682 5679 5675 5671 5666 5662 5657 5651 5646 5640 5634 5628 5623 5617 5611 5606 5601 5595 5589 5584 5578 5572 5566 5560 5554 5548 5542 5538 5533 5529 5525
5697 5696 5695 5694 5693 5691 5689 5687 5685 5682 5680 5677 5674 5670 5666 5662 5657 5653 5648 5643 5638 5632 5627 5622 5617 5611 5606 5601 5596 5591 5586 5580 5575 5569 5564 5558 5553 5548 5543 5539 5535 5531 5527 5523
5689 5688 5686 5685 5683 5681 5679 5676 5674 5671 5668 5665 5661 5657 5653 5649 5644 5639 5635 5630 5625 5621 5616 5611 5607 5602 5597 5593 5588 5583 5577 5572 5567 5562 5557 5553 5548 5544 5540 5536 5533 5529 5526 5523
5680 5678 5677 5675 5673 5670 5668 5665 5662 5659 5656 5652 5648 5644 5640 5636 5632 5628 5623 5619 5615 5611 5606 5602 5598 5594 5589 5585 5580 5575 5570 5566 5561 5557 5552 5548 5545 5541 5538 5535 5531 5528 5525 5522
5670 5668 5666 5664 5662 5659 5656 5653 5650 5647 5643 5640 5636 5632 5628 5624 5620 5617 5613 5609 5605 5602 5598 5594 5590 5586 5582 5578 5573 5569 5564 5560 5556 5552 5549 5545 5542 5539 5536 5533 5530 5528 5525 5522
5660 5657 5655 5653 5651 5648 5645 5642 5639 5635 5632 5628 5625 5621 5618 5614 5611 5607 5604 5601 5597 5594 5590 5587 5583 5579 5575 5571 5567 5563 5559 5555 5552 5549 5546 5543 5540 5537 5535 5532 5529 5527 5524 5522